Preview of NWS' New Version of Forecast
This preview is not operational and should not be used for support decisions.

Regional Weather Roundup (RWR)

Issued by Philadelphia/Mt Holly (PHI)

                            
000
ASUS41 KPHI 172312
RWRPHI

REGIONAL WEATHER ROUNDUP
NATIONAL WEATHER SERVICE MOUNT HOLLY NJ
700 PM EDT TUE SEP 17 2019

NOTE:  "FAIR" INDICATES FEW OR NO CLOUDS BELOW 12,000 FEET WITH NO
SIGNIFICANT WEATHER AND/OR OBSTRUCTIONS TO VISIBILITY.

 * = STATION DOES NOT REPORT PRECIPITATION (E.G. RAIN, SNOW, ETC.) 
        OR FOG.

NJZ015>026-180000-
SOUTHERN NEW JERSEY
  
CITY           SKY/WX    TMP DP  RH WIND       PRES   REMARKS
POMONA         FAIR      67  52  58 E5        30.10R                  
WILDWOOD*      FAIR      68  52  56 E3        30.11R                  
MILLVILLE      FAIR      69  50  50 SE8       30.10R                  
WRIGHTSTOWN    FAIR      70  50  49 E5        30.09R                  
MOUNT HOLLY    FAIR      71  50  47 CALM      30.09R                  
TRENTON        FAIR      72  41  32 NE5       30.10R                  

$$
NJZ001>014-180000-
NORTHERN NEW JERSEY
  
CITY           SKY/WX    TMP DP  RH WIND       PRES   REMARKS
SUSSEX         FAIR      69  48  47 NE7       30.11R                  
ANDOVER*         N/A     63  55  75 CALM      30.11R                  
MORRISTOWN     CLEAR     66  59  77 CALM      30.10R                  
NEWARK         FAIR      74  39  28 NE15      30.10R                  
TETERBORO      FAIR      73  35  25 NE9       30.09R                  
CALDWELL       FAIR      73  46  38 E7        30.11R                  
SOMERVILLE     FAIR      66  48  52 CALM      30.08S                  
ALLAIRE*       FAIR      69  47  45 E6        30.11R                  
TOMS RIVER*    FAIR      67  57  70 CALM      30.11R                  

$$
PAZ043-044-047-054-055-060>062-066>071-180000-
EASTERN PENNSYLVANIA
  
CITY           SKY/WX    TMP DP  RH WIND       PRES   REMARKS
PHILADELPHIA   FAIR      75  43  31 N13G21    30.10R                  
NORTH PHILA    FAIR      75  44  33 NE7       30.11R                  
BLUE BELL*     FAIR      65  57  76 CALM      30.11R                  
DOYLESTOWN     FAIR      70  50  49 CALM      30.10R                  
QUAKERTOWN*    CLEAR     72  50  46 CALM      30.11                   
PERKASIE*      FAIR      66  54  63 CALM      30.12R                  
POTTSTOWN      FAIR      72  48  42 CALM      30.12R                  
LANCASTER      FAIR      75  52  44 NE3       30.10R                  
COATESVILLE    FAIR      70  50  49 CALM      30.13R                  
WEST CHESTER   FAIR      72  46  40 CALM      30.11R                  
READING        FAIR      74  51  44 N5        30.09R                  
ALLENTOWN      FAIR      72  47  40 NE7       30.10R                  
QN CITY/ALNTWN FAIR      72  50  46 SE5       30.11S                  
MOUNT POCONO   FAIR      64  42  44 N8        30.16R                  
HAZLETON       FAIR      66  45  45 NW5       30.18S                  
LEHIGHTON      FAIR      68  46  45 CALM      30.12S                  
WILKES BARRE   FAIR      71  49  45 N7        30.13S                  

$$
DEZALL-MDZ008-012-015-019-020-180000-
DELAWARE AND EASTERN MARYLAND
  
CITY           SKY/WX    TMP DP  RH WIND       PRES   REMARKS
WILMINGTON     FAIR      75  49  39 N8        30.09R                  
DOVER          FAIR      69  54  58 SE6       30.10R                  
CHESWOLD       CLEAR     70  55  60 SE5       30.10R                  
GEORGETOWN     FAIR      67  56  67 SE5       30.11R                  
EASTON         PTCLDY    75  57  53 E7        30.12R                  
STEVENSVILLE   FAIR      75  55  50 CALM      30.08S                  
ABERDEEN       PTCLDY    73  52  46 NE5       30.09R                  
PATUXENT       MOCLDY    73  59  61 E9        30.08R                  
OCEAN CITY     FAIR      69  54  58 E9        30.11R                  
WALLOPS ISLAND FAIR      68  56  65 NE12      30.09S                  
CAMBRIDGE      CLEAR     72  57  60 E6        30.09R                  
SALISBURY      FAIR      69  54  58 E7        30.10R                  

$$
PAZ001-021-NYZ056-072-MDZ011-DCZ001-180000-
OTHER NEARBY LOCATIONS
  
CITY           SKY/WX    TMP DP  RH WIND       PRES   REMARKS
HARRISBURG     FAIR      75  44  33 VRB3      30.10R                  
STATE COLLEGE  CLEAR     68  50  52 NE5       30.15S                  
WILLIAMSPORT   FAIR      72  48  42 N6        30.12S                  
BINGHAMTON     FAIR      63  47  55 N8        30.18R                  
NEW YORK CITY  FAIR      72  33  24 NE8       30.13R                  
BALTIMORE      FAIR      76  56  49 E7        30.08R                  
WASHINGTON DC  MOCLDY    77  58  51 E9        30.08S                  

$$